1st Responders/1st Detectors/Storm Spotters Weather Summary for Simpson County, KY

Forecast Maps


Reg. NEXRAD Animation


National Fire Danger: Day 1 & 2 Map

Current NWS Watch/Warnings

SPC Convective Day 1 Outlook


Day 2 Outlook

(Click images to enlarge|Page will refresh every 5 minutes)
UK Ag. Weather Center Desktop Severe Weather Service[HERE]
Simpson County, KY Hazardous Weather Outlook Webcast
(9 AM to 9 PM Mon-Fri)
[Fast]
[Dial-up]


UKAWC 1st Detectors/1st Responders Precision Weather Forecast For SIMPSON County, Kentucky
(based on the NWS County Digital Forecast)

ISSUED AT 23:00 UTC ON SUNDAY NOV 18 2018
DAY SUNDAY MONDAY
CDT 3HR 7P 8P 9P 10P 11P MIDN 1A 2A 3A 4A 5A 6A 7A 8A 9A 10A 11A NOON 1P 2P 3P 4P 5P 6P
MAX/MIN 58° -- -- -- -- -- -- -- -- -- -- -- 41° -- -- -- -- -- -- -- -- -- -- 49°
TEMP 47° 45° 43° 43° 43° 41° 41° 41° 41° 41° 41° 43° 43° 45° 45° 47° 49° 49° 49° 49° 49° 47° 45° 43°
SKY COVER 72% 72% 72% 72% 77% 82% 87% 90% 93% 96% 100% 100% 100% 100% 100% 100% 100% 100% 100% 100% 100% 100% 97% 94%
Clouds
DEW PT 45° 43° 43° 43° 43° 41° 41° 41° 41° 41° 41° 43° 43° 43° 43° 43° 43° 45° 45° 45° 43° 43° 41° 41°
RH 89% 92% 99% 99% 99% 99% 99% 99% 99% 99% 100% 100% 100% 92% 92% 86% 82% 83% 86% 82% 83% 86% 85% 92%
POP 12HR 11% -- -- -- -- -- -- -- -- -- -- -- 19% -- -- -- -- -- -- -- -- -- -- --
RAIN/SNOW (liq.equ) 0.00in -- -- -- -- -- 0.00in -- -- -- -- -- 0.00in -- -- -- -- -- 0.03in -- -- -- -- --
SNOWFALL 0in -- -- -- -- -- 0in -- -- -- -- -- 0in -- -- -- -- -- 0in -- -- -- -- --
WIND SPEED(MPH) 2 2 2 1 1 1 1 1 1 1 2 2 5 6 6 7 7 9 8 8 8 7 7 7
WIND Gust(MPH) 2 2 2 1 1 1 1 1 1 1 2 2 5 6 6 7 7 14 13 13 13 10 10 10
WIND DIR NW NW N N N NE E E E SE SE S S S S S SW SW SW W W W W W
DEW Hvy Dew Hvy Dew Hvy Dew Hvy Dew Hvy Dew Hvy Dew Hvy Dew Hvy Dew -- -- -- -- -- -- -- -- -- -- -- -- -- -- -- --
HeatIndex 47 45 42 43 43 41 41 41 41 41 40 41 40 41 45 47 49 49 49 49 49 47 45 39
Rain -- -- -- -- -- -- -- -- -- -- Slight Chance Slight Chance Slight Chance Slight Chance Slight Chance Slight Chance Chance Chance Chance Chance Chance Chance Slight Chance Slight Chance
Rain Showers -- -- -- -- -- -- -- -- -- -- -- -- -- -- -- -- -- -- -- -- -- -- -- --
WIND CHILL -- -- -- -- -- -- -- -- -- -- -- -- 40° 42° 42° -- -- -- -- -- -- -- 41° 39°
SPRAY COND
DRY COND
LIVESTOCK COLDSTRESS



DAY TUESDAY WEDNESDAY THURSDAY FRIDAY SATURDAY SUNDAY
CDT 6HR 7P 8P 9P 10P 11P MIDN 1A 2A 3A 4A 5A 6A 7A 10A 1P 4P 7P 10P 1A 4A 7A 10A 1P 4P 7P 1A 7A 1P 7P 1A 7A 1P 7P 1A 7A 1P 7P 1A 7A 1P 7P
MAX/MIN -- -- -- -- -- -- -- -- -- -- -- -- 34° -- -- 43° -- -- -- -- 27° -- -- 49° -- -- 31° 56° -- -- 36° 54° -- -- 43° 56° -- -- 43° 54° --
TEMP 43° 43° 41° 40° 40° 40° 40° 38° 38° 36° 36° 34° 34° 40° 43° 43° 36° 31° 29° 29° 27° 36° 45° 49° 41° 34° 31° 54° 45° 38° 38° 52° 47° 45° 43° 54° 52° 47° 43° 54° 49°
SKY COVER 91% 89% 86% 85% 85% 84% 83% 79% 72% 68% 66% 63% 61% 66% 63% 52% 41% 15% 20% 8% 12% 5% 4% 4% 1% 3% 4% 4% 2% 2% 14% 58% 95% 92% 84% 79% 78% 71% 74% 82% 89%
Clouds
DEW PT 43° 43° 41° 40° 40° 40° 38° 38° 38° 36° 36° 34° 34° 36° 34° 32° 31° 29° 27° 27° 25° 27° 29° 31° 31° 31° 29° 38° 38° 34° 34° 40° 41° 43° 43° 49° 47° 45° 43° 47° 45°
RH 95% 99% 100% 99% 99% 99% 95% 99% 99% 99% 100% 100% 99% 85% 73% 67% 81% 92% 91% 91% 95% 72% 51% 52% 67% 88% 91% 52% 72% 85% 85% 61% 82% 92% 99% 79% 82% 92% 96% 74% 85%
POP 12HR 42% -- -- -- -- -- -- -- -- -- -- -- 13% -- -- -- 4% -- -- -- 1% -- -- -- 1% -- 2% -- 2% -- 3% -- 41% -- 63% -- 50% -- 27% -- 30%
RAIN/SNOW (liq.equ) 0.01in -- -- -- -- -- 0.00in -- -- -- -- -- 0.00in -- 0.00in -- 0.00in -- 0.00in -- 0.00in -- 0.00in -- 0.00in -- -- -- -- -- -- -- -- -- -- -- -- -- -- -- --
SNOWFALL 0in -- -- -- -- -- 0in -- -- -- -- -- 0in -- 0in -- 0in -- 0in -- 0in -- 0in -- 0in -- -- -- -- -- -- -- -- -- -- -- -- -- -- -- --
WIND SPEED(MPH) 7 7 7 7 7 6 6 6 6 6 6 6 6 7 7 7 6 5 2 2 1 2 5 5 2 1 2 6 6 7 7 13 10 9 8 6 6 6 6 8 8
WIND DIR W W NW NW NW NW W W W W W W W NW NW NW NW NW NW W W W W W SW NW E E E SE SE S S S S S S S S S SW
HeatIndex 40 38 37 36 36 35 35 34 33 32 31 29 29 35 38 38 32 27 26 25 27 33 45 49 40 34 28 54 45 34 32 52 47 45 38 54 52 47 40 54 49
Rain -- -- -- -- -- -- -- -- -- -- -- -- -- -- -- -- -- -- -- -- -- -- -- -- -- -- -- -- -- -- -- -- -- -- -- -- -- -- -- -- --
Rain Showers -- -- -- -- -- -- -- -- -- -- -- -- -- -- -- -- -- -- -- -- -- -- -- -- -- -- -- -- -- -- -- Chance Likely Likely Chance Chance Chance Slight Chance -- Chance Chance
WIND CHILL 39° 39° 36° 35° 35° 36° 36° 34° 34° 31° 31° 29° 29° 35° 39° 39° 31° 26° -- -- -- -- 43° -- -- -- -- -- 42° 33° 33° -- -- 40° 38° -- -- -- 39° -- --
SPRAY COND
DRY COND
LIVESTOCK COLDSTRESS

Click on individual weather variable above in left-hand column (ie., TEMP, RH, QPF 12HR) to view state forecast maps






NWS 48 Hr. Forecast Maps,

Regional Hourly Observations For SIMPSON County, Kentucky
Issued at 600 PM EST SUN NOV 18 2018
WESTERN AND SOUTH CENTRAL KENTUCKY
  
CITY           SKY/WX    TMP DP  RH WIND       PRES   REMARKS
PADUCAH        CLOUDY    45  38  76 NE6       30.17F HAZE             
HENDERSON      CLOUDY    47  41  80 NW3       30.18S                  
OWENSBORO      FAIR      45  40  82 NW5       30.17R HAZE             
HOPKINSVILLE   FAIR      53  44  72 NW6       30.14R                  
BOWLING GREEN  FAIR      56  43  61 CALM      30.13S                  
GLASGOW        CLOUDY    55  42  62 CALM      30.13S                  


Current NOWCAST not available:
Nowcasts are not issued routinely during fair weather. Only when
precipitation or other significant weather is occuring in this county will these
forecasts be issued. Currently, there is no short term forecast in effect.


Fire Weather Forecast For SIMPSON County, KY
Provided by the National Weather Service:

Issued at: Sun Nov 18 18:05:01 EST 2018

339 PM EST Sun Nov 18 2018 /239 PM CST Sun Nov 18 2018/

                      Tonight      Mon          Mon Night    Tue          

CLOUD COVER           MCldy        Cloudy       MCldy        PCldy        
PRECIP TYPE           Rain         Rain         Showers      None         
CHANCE PRECIP (%)     40           50           0            0            
TEMP (24H TREND)      41 (+4)      50 (-6)      32           43           
RH % (24H TREND)      99 (+1)      79 (+11)     100          64           
20FTWND-VAL/AM(MPH)                Lgt/Var                   Lgt/Var      
20FTWND-RDG/PM(MPH)   Lgt/Var      W  5         Lgt/Var      NW  5        
PRECIP AMOUNT         0.03         0.07         0.00         0.00         
MIXING HGT(FT-AGL/MSL)             1448                      3225         
TRANSPORT WND (MPH)                W 17                      NW 13        
VENT RATE (KT-FT)                  31746                     34952        
DISPERSION                         Marginal                  Marginal     
DSI                   STBL         STBL         SLGT UNSTBL  SLGT UNSTBL  
LAL                   1            1            1            1            
HAINES INDEX          3            2            2            2            
ADI EARLY             4 VERY POOR  19 GEN POOR  7 POOR       29 FAIR      
ADI LATE              17 GEN POOR  19 GEN POOR  14 GEN POOR  31 FAIR      
MAX LVORI EARLY       7            5            7            6            
MAX LVORI LATE        7            5            8            3            

REMARKS...ADI IS ATMOSPHERIC DISPERSION INDEX BY LAVDAS.        
LVORI IS LOW VISIBILITY OCCURRENCE RISK INDEX.

.WEDNESDAY...Mostly clear. Lows in the upper 20s. Highs in the
upper 40s. Northwest winds around 5 mph. 
.THURSDAY...Clear. Lows in the lower 30s. Highs in the mid 50s.
East winds up to 5 mph. 
.FRIDAY...Mostly clear. A 50 percent chance of rain showers. Lows
in the mid 30s. Highs in the mid 50s. South winds 5 to 10 mph. 
.SATURDAY...Rain showers likely. Lows in the lower 40s. Highs in
the mid 50s. South winds 5 to 10 mph. 
.SUNDAY...Mostly cloudy with a 40 percent chance of rain showers.
Lows in the lower 40s. Highs in the mid 50s. Southwest winds 5 to
10 mph. 

SPC's Fire Weather Web Tool (Excellent!), SPC's Fire Weather Outlooks, NWS Fire Weather WEB, Fire Danger Class Map,
Keetch-Byram Drought Index, ROMAN Web, Haines Index ,
WFAS's 10-hr Dead Fuel Moist., WFAS's 100-hr Dead Fuel Moist., Probablity of Ignition, Visual blackness Map, Palmer Drought Index, HPC's Rainfall Forecast Maps


Hazardous Weather Outlook For SIMPSON County, Kentucky
314 PM EST Sun Nov 18 2018 /214 PM CST Sun Nov 18 2018/

 DAY ONE  Tonight.

No hazardous weather is expected at this time.

 DAYS TWO THROUGH SEVEN  Monday through Saturday.

No hazardous weather is expected at this time.

 SPOTTER INFORMATION STATEMENT  

Spotter activation is not anticipated at this time.

Latest SIMPSON County, Kentucky Watches, Warnings and Advisories.
Additional Drought Info.: UKAWC Drought Page, Kentucky Drought Watch


7-Day Forecast For SIMPSON County, KY

TONIGHT
Mostly cloudy. A 20 percent chance of rain after midnight. Lows in the lower 40s. Northwest winds up to 5 mph shifting to the east after midnight.

MONDAY
Cloudy with a 50 percent chance of rain. Highs around 50. Southwest winds 5 to 10 mph.

MONDAY NIGHT
Mostly cloudy. Lows in the mid 30s. Northwest winds 5 to 10 mph.

TUESDAY
Partly cloudy. Highs in the mid 40s. Northwest winds 5 to 10 mph.

TUESDAY NIGHT
Mostly clear. Lows in the upper 20s. Northwest winds around 5 mph.

WEDNESDAY
Sunny. Highs in the upper 40s.

WEDNESDAY NIGHT
Clear. Lows in the lower 30s.

THANKSGIVING DAY
Sunny. Highs in the mid 50s.

THURSDAY NIGHT
Clear. Lows in the mid 30s.

FRIDAY
Partly cloudy with a 40 percent chance of rain showers. Highs in the mid 50s.

FRIDAY NIGHT
Showers likely. Lows in the lower 40s. Chance of showers 60 percent.

SATURDAY
Mostly cloudy with a 50 percent chance of showers. Highs in the mid 50s.

SATURDAY NIGHT
Mostly cloudy with a 30 percent chance of showers. Lows in the lower 40s.

SUNDAY
Mostly cloudy with a 30 percent chance of showers. Highs in the mid 50s.

Ag Weather Center, Department of Biosystems & Agricultural Engineering, University of Kentucky